Regional Weather Roundup
Issued by NWS

Home | Current Version | Previous Version | Graphics & Text | Print | Product List | Glossary On
Versions: 1 2 3 4 5 6 7 8 9 10 11 12 13 14 15 16 17 18 19 20 21 22 23 24 25 26 27 28 29 30 31 32 33 34 35 36 37 38 39 40 41 42 43 44 45 46 47 48 49 50
000
ASUS43 KIND 272359
RWRIN

WEATHER ROUNDUP FOR INDIANA
NATIONAL WEATHER SERVICE INDIANAPOLIS IN
800 PM EDT SUN JUL 27 2014

NOTE: "FAIR" INDICATES FEW OR NO CLOUDS BELOW 12,000 FEET WITH NO
SIGNIFICANT WEATHER AND/OR OBSTRUCTIONS TO VISIBILITY.

* - STATION DOES NOT REPORT WEATHER SUCH AS PRECIPITATION OR FOG.

+ - STATION NOT QUALITY CONTROLLED BY THE NATIONAL WEATHER SERVICE.
    USE DATA WITH CAUTION...ESPECIALLY DEWPOINT AND RELATIVE
    HUMIDITY OBSERVATIONS.

INZ001>003-010>013-019-020-280100-
NORTHWEST INDIANA

CITY           SKY/WX    TMP DP  RH WIND       PRES   REMARKS
GARY /AIRPORT/ PTSUNNY   79  54  41 W21G32    29.77R
KNOX *+        CLOUDY    71  57  61 NW9       29.76R
MONTICELLO +   SUNNY     75  59  58 NW10G22   29.77R
VALPARAISO     PTSUNNY   72  57  59 NW9       29.78R
6HR MIN TEMP:  71; 6HR MAX TEMP:  87; 6HR PCP: TRACE;


$$

LMZ046-743>745-280100-
SOUTHERN LAKE MICHIGAN

STATION/POSITION TIME  TEMP WIND        PRES
                       AIR  DIR/SP/G
                 (UTC) (F)  (DEG/KT/KT) (MB)
BURNS HARBOR     2300   71  340/ 14/ 18 1008.5R
MICHIGAN CITY    2300   69  330/ 20/ 24   N/A

$$

INZ004-005-014>016-021>024-280100-
NORTH CENTRAL INDIANA

CITY           SKY/WX    TMP DP  RH WIND       PRES   REMARKS
GOSHEN         MOSUNNY   74  57  55 NW18G26   29.74R
6HR MIN TEMP:  67; 6HR MAX TEMP:  88; 6HR PCP:  0.42;

SOUTH BEND     PTSUNNY   73  56  54 NW18G25   29.76R
6HR MIN TEMP:  72; 6HR MAX TEMP:  88; 6HR PCP: TRACE;

WARSAW +       PTSUNNY   72  59  64 NW12      29.74R

$$

INZ006>009-017-018-025>027-280100-
NORTHEAST INDIANA

CITY           SKY/WX    TMP DP  RH WIND       PRES   REMARKS
ANGOLA *+      MOSUNNY   73  61  64 N9        29.70R
AUBURN +       MOSUNNY   72  63  73 W12G17    29.71R
FORT WAYNE     TSTM      71  63  75 NW14G25   29.73R
6HR MIN TEMP:  65; 6HR MAX TEMP:  83; 6HR PCP:  0.42;


$$

INZ028-029-035-036-043>045-051>053-280100-
WEST CENTRAL INDIANA

CITY           SKY/WX    TMP DP  RH WIND       PRES   REMARKS
GREENCASTLE +  MOSUNNY   77  59  53 W9G17     29.81R
LAFAYETTE      MOSUNNY   76  58  53 W17G23    29.79R
6HR MIN TEMP:  76; 6HR MAX TEMP:  85;

TERRE HAUTE    MOSUNNY   79  59  50 NW15G23   29.82R
6HR MIN TEMP:  79; 6HR MAX TEMP:  87; 6HR PCP: TRACE;


$$

INZ030>032-037>040-046>048-054>057-064-065-280100-
CENTRAL INDIANA

CITY           SKY/WX    TMP DP  RH WIND       PRES   REMARKS
COLUMBUS       MOSUNNY   79  66  65 W12G17    29.77R
INDIANAPOLIS   MOSUNNY   78  60  53 W15G25    29.78R
6HR MIN TEMP:  72; 6HR MAX TEMP:  85; 6HR PCP:  0.14;

-EAGLE CREEK   MOSUNNY   78  58  49 NW22G35   29.78R
6HR MIN TEMP:  76; 6HR MAX TEMP:  83; 6HR PCP:  0.01;

KOKOMO *+      MOSUNNY   77  59  53 NW20G29   29.75R
MT COMFORT *+  SUNNY     79  61  53 NW18G32   29.78R
SHELBYVILLE    MOSUNNY   80  65  59 NW23G33   29.76R
6HR MIN TEMP:  75; 6HR MAX TEMP:  86; 6HR PCP:  0.03;

ZIONSVILLE +   MOSUNNY   77  57  49 NW14G24   29.79R
6HR MIN TEMP:  77; 6HR MAX TEMP:  84; 6HR PCP:  0.03;


$$

INZ033-034-041-042-049-050-058-059-280100-
EAST CENTRAL INDIANA

CITY           SKY/WX    TMP DP  RH WIND       PRES   REMARKS
MUNCIE         CLEAR     77  59  53 NW20G32   29.74R
6HR MIN TEMP:  71; 6HR MAX TEMP:  83; 6HR PCP:  0.10;


$$

INZ060-061-067>069-081>083-085>088-280100-
SOUTHWEST INDIANA

CITY           SKY/WX    TMP DP  RH WIND       PRES   REMARKS
EVANSVILLE     MOSUNNY   87  66  49 W13G21    29.83R
6HR MIN TEMP:  87; 6HR MAX TEMP:  90;


$$

INZ062-063-066-070>080-084-089>092-280100-
SOUTH CENTRAL AND SOUTHEAST INDIANA

CITY           SKY/WX    TMP DP  RH WIND       PRES   REMARKS
BLOOMINGTON    SUNNY     78  62  57 NW13G25   29.81R
6HR MIN TEMP:  72; 6HR MAX TEMP:  85; 6HR PCP:  0.01;

SEYMOUR +      MOCLDY    73  57  56 W9        29.77R

$$



USA.gov is the U.S. government's official web portal to all federal, state and local government web resources and services.